Location: Mesa
(33.4220°N, 111.8220°W)
Time: 13:50:41
(UTC-07:00)

N. Korean satellite - Visible Passes

Search period start: 17 November 2019 00:00
Search period end: 27 November 2019 00:00
Orbit: 456 x 506 km, 97.2° (Epoch: 17 November)

Date Brightness Start Highest point End Pass type
(mag) Time Alt. Az. Time Alt. Az. Time Alt. Az.
17 Nov 6.5 06:20:52 10° N 06:24:34 79° WNW 06:28:12 10° SSW visible
17 Nov 9.7 18:26:17 10° SW 18:28:53 19° W 18:31:33 10° NW visible
18 Nov 8.0 05:55:40 10° NNE 05:59:11 42° E 06:02:39 10° S visible
18 Nov 8.1 18:00:00 10° S 18:03:25 42° W 18:06:56 10° NNW visible
19 Nov 9.6 05:31:01 10° NE 05:33:43 19° E 05:36:22 10° SE visible
20 Nov 10.2 18:45:05 10° WSW 18:46:13 11° W 18:47:21 10° WNW visible
21 Nov 6.7 06:12:43 10° NNE 06:16:24 79° ESE 06:20:00 10° S visible
21 Nov 9.3 18:17:40 10° SSW 18:20:41 24° W 18:23:43 10° NW visible
22 Nov 8.5 05:47:39 10° NNE 05:50:59 32° E 05:54:15 10° SSE visible
22 Nov 7.4 17:51:39 10° S 17:55:13 56° W 17:58:52 10° NNW visible
23 Nov 9.9 05:23:20 10° ENE 05:25:28 15° E 05:27:35 10° SE visible
24 Nov 6.6 06:29:58 10° N 06:33:33 55° WNW 06:37:04 10° SSW visible
24 Nov 10.0 18:35:52 10° SW 18:37:56 15° W 18:40:03 10° WNW visible
25 Nov 7.2 06:04:34 10° NNE 06:08:11 59° E 06:11:43 10° S visible
25 Nov 8.7 18:09:09 10° SSW 18:12:25 31° W 18:15:45 10° NNW visible
26 Nov 9.0 05:39:41 10° NE 05:42:43 25° E 05:45:43 10° SSE visible
26 Nov 6.9 17:43:20 10° S 17:46:59 75° WSW 17:50:42 10° NNW visible
